2019-093D (44882 NORAD) Tracking and Keplerian Element Data

This shows tracking and keplerian element data for the satellite.

Feedback or suggestion? Click here.




ElementValue
Catalog44882
Name2019-093D
Epoch Orbit504
Epoch Day23.22787757
Epoch Year2020
RAAN100.181
Inclination97.9771
Eccentricity0.0017236
Argument of Perigee150.3812
Mean Anonmoly209.839
Mean Motion14.81429476
Decay Rate1.06E-06
L11 44882U 19093D 20023.22787757 .00000106 00000-0 20415-4 0 9993
L22 44882 97.9771 100.1810 0017236 150.3812 209.8390 14.81429476 5044

Live tracking and technical data element details for 2019-093D (NORAD 44882). 2019-093D can be tracked NOW for your location showing map with azimuth and elevation plus other details from your city location.

Track the satellite on the map from your city or location and see movement details for azimuth, elevation, latitude, longitude, range, height, and movement on the map or in text.







IsCatalogInMostPopularTable: catalog: 44882, numindb: 7
Update: records affected: 1



GetName: 44882 2019-093D

Hit Count: updated at: Fri, 24 Jan 2020 13:36:46 GMT